TimeEDT,TemperatureF,Dew PointF,Humidity,Sea Level PressureIn,VisibilityMPH,Wind Direction,Wind SpeedMPH,Gust SpeedMPH,PrecipitationIn,Events,Conditions,WindDirDegrees,DateUTC
12:55 AM,63.0,59.9,90,30.02,10.0,WNW,6.9,-,N/A,,Clear,290,2012-11-02 04:55:00
1:55 AM,61.7,59.4,92,30.02,10.0,WNW,6.9,-,N/A,,Clear,290,2012-11-02 05:55:00
2:55 AM,61.0,58.8,93,30.03,10.0,NW,5.8,-,N/A,,Clear,310,2012-11-02 06:55:00
3:55 AM,60.6,56.7,87,30.03,10.0,NW,4.6,-,N/A,,Clear,310,2012-11-02 07:55:00
4:55 AM,59.9,54.1,81,30.04,10.0,NW,9.2,-,N/A,,Clear,310,2012-11-02 08:55:00
5:55 AM,59.5,51.4,75,30.05,10.0,NNW,9.2,-,N/A,,Clear,330,2012-11-02 09:55:00
6:55 AM,59.9,51.4,74,30.06,10.0,NNW,11.5,-,N/A,,Clear,330,2012-11-02 10:55:00
7:55 AM,59.9,53.6,80,30.06,10.0,NNW,8.1,-,N/A,,Clear,330,2012-11-02 11:55:00
8:55 AM,62.1,54.5,76,30.07,10.0,NW,10.4,-,N/A,,Clear,320,2012-11-02 12:55:00
9:55 AM,64.4,52.3,65,30.09,10.0,NW,5.8,-,N/A,,Clear,310,2012-11-02 13:55:00
10:55 AM,67.1,50.0,54,30.11,10.0,WNW,4.6,-,N/A,,Clear,290,2012-11-02 14:55:00
11:55 AM,70.2,48.6,46,30.11,10.0,WNW,3.5,-,N/A,,Clear,290,2012-11-02 15:55:00
12:55 PM,72.3,41.4,33,30.09,10.0,NNW,4.6,-,N/A,,Clear,340,2012-11-02 16:55:00
1:55 PM,73.8,43.5,34,30.06,10.0,NNW,5.8,-,N/A,,Clear,340,2012-11-02 17:55:00
2:55 PM,73.9,43.7,34,30.04,10.0,NNW,5.8,-,N/A,,Clear,340,2012-11-02 18:55:00
3:55 PM,73.2,49.8,44,30.03,10.0,ENE,8.1,-,N/A,,Clear,70,2012-11-02 19:55:00
4:55 PM,72.3,49.3,44,30.03,10.0,ENE,5.8,-,N/A,,Clear,70,2012-11-02 20:55:00
5:55 PM,71.2,50.7,48,30.03,10.0,ESE,4.6,-,N/A,,Clear,110,2012-11-02 21:55:00
6:55 PM,68.7,51.8,55,30.03,10.0,SE,3.5,-,N/A,,Clear,140,2012-11-02 22:55:00
7:55 PM,66.9,52.0,59,30.05,10.0,South,5.8,-,N/A,,Clear,170,2012-11-02 23:55:00
8:55 PM,65.1,52.2,63,30.06,10.0,South,5.8,-,N/A,,Clear,180,2012-11-03 00:55:00
9:55 PM,63.0,54.7,74,30.07,10.0,South,6.9,-,N/A,,Clear,180,2012-11-03 01:55:00
10:55 PM,64.2,53.8,69,30.08,10.0,SW,9.2,-,N/A,,Clear,220,2012-11-03 02:55:00
11:55 PM,62.6,53.4,72,30.08,10.0,West,9.2,-,N/A,,Clear,260,2012-11-03 03:55:00